Hourly Data Report for July 11, 2021

DRYDEN REGIONAL
ONTARIO
Current Station Operator: NAVCAN

49°49'39.000" N
92°44'39.000" W
412.70 m
6032125
71527
YHD

Download Data

Hourly Data (July 2021)
Hourly Data Report for July 11, 2021
TIME
LST
Temp Definition
°C
Dew Point Definition
°C
Rel Hum Definition
%
Precip. Amount Definition
mm

Wind Dir Definition
10's deg

Wind Spd Definition
km/h
Visibility Definition
km
Stn Press Definition
kPa
Hmdx Definition


Wind Chill Definition


Weather Definition


00:00 21.7 12.4 55 0.0 24 13 16.1 96.73     LegendNANA
01:00 20.8 12.9 60 0.0 23 13 16.1 96.73     LegendNANA
02:00 20.1 13.2 64 0.0 21 13 16.1 96.74     LegendNANA
03:00 19.2 13.7 70 0.0 21 13 16.1 96.72     LegendNANA
04:00 18.6 13.9 74 0.0 22 13 16.1 96.74     LegendNANA
05:00 18.6 14.3 76 0.0 21 11 16.1 96.76     LegendNANA
06:00 18.5 14.6 78 0.0 21 13 16.1 96.78     LegendNANA
07:00 18.8 15.0 78 0.0 21 9 16.1 96.80     LegendNANA
08:00 19.5 15.6 78 0.0 24 9 16.1 96.79     LegendNANA
09:00 20.5 15.7 73 0.0 23 9 16.1 96.77 25   LegendNANA
10:00 21.4 15.8 70 0.0 23 9 16.1 96.79 26   LegendNANA
11:00 22.4 16.1 67 0.0 21 9 9.7 96.79 27   Haze
12:00 23.0 16.7 67 0.0 20 11 12.9 96.80 28   LegendNANA
13:00 24.0 16.3 62 0.0 22 13 9.7 96.76 29   Haze
14:00 25.6 16.9 58 0.0 19 9 4.8 96.75 31   Haze
15:00 26.8 17.0 54 0.0 21 9 4.8 96.74 32   Haze
16:00 26.7 17.4 56 0.0 20 8 4.0 96.74 32   Haze
17:00 26.7 17.6 57 0.0 20 8 9.7 96.69 32   Haze
18:00 25.8 18.1 62 0.0 19 9 16.1 96.67 32   LegendNANA
19:00 25.2 18.5 66 0.0 18 11 16.1 96.66 32   LegendNANA
20:00 24.2 18.5 70 0.0 18 13 16.1 96.65 31   LegendNANA
21:00 23.5 16.0 62 0.0 20 15 16.1 96.69 28   LegendNANA
22:00 23.2 14.9 59 0.0 20 17 16.1 96.69 27   LegendNANA
23:00 22.7 14.7 60 0.0 20 17 16.1 96.70 26   LegendNANA

Notes on Data Quality.

Legend

  • E = Estimated
  • M = Missing
  • NA = Not Available*
  • [empty] = Indicates an unobserved value
Date modified: